Tracking 32412 objects as of 7-Dec-2025
HD Live streaming from Space Station
objects crossing your sky now

STARLINK-11089

Track STARLINK-11089 now!
10-day predictions
STARLINK-11089 is classified as:


NORAD ID: 59426
Int'l Code: 2024-065F
Perigee: 366.1 km
Apogee: 367.6 km
Inclination: 53.2 °
Period: 91.7 minutes
Semi major axis: 6737 km
RCS: Unknown
Launch date: April 7, 2024
Source: United States (US)
Launch site: AIR FORCE WESTERN TEST RANGE (AFWTR)
Your satellite tracking list
Your tracking list is empty




NASA's NSSDC Master Catalog

Two Line Element Set (TLE):
1 59426U 24065F   25340.30696721  .00000415  00000-0  82825-5 0  9991
2 59426  53.1571 194.4387 0001113  88.3700 271.7445 15.69712747 96855
Source of the keplerian elements: AFSPC